Погода в Садске

Чехия     50°08′07″N   14°59′07″E
темп.,
°C
ветер,
м/с
пор.,
м/с
влажн.,
%
обл.,
%
осадки,
мм/ч
давл.,
гПа
погр.,
м
17 июня, чт
чт1723:00+18в478436 0.0 1017109
02:00+16в35855 0.0 101773
05:00+15в34895 0.0 101755
08:00+20вюв34725 0.0 1017267
11:00+26вюв46545 0.0 10171032
14:00+29юв56400 0.0 10162019
17:00+28ююв56423 0.0 10161627
20:00+23юв38670 0.0 1016180
18 июня, пт
пт1823:00+19вюв34820 0.0 101749
02:00+17в46829 0.0 101782
05:00+16в47835 0.0 1017109
08:00+21вюв58685 0.0 1017343
11:00+27юв68480 0.0 10161376
14:00+29юв67400 0.0 10151995
17:00+28ююв56440 0.0 10141634
20:00+24юв38660 0.0 1014184
19 июня, сб
сб1923:00+19вюв22840 0.0 101623
02:00+18в35830 0.0 101568
05:00+17вюв33830 0.0 101641
08:00+22вюв34670 0.0 1016226
11:00+27юв22510 0.0 1015734
14:00+30всв214225 0.0 10151433
17:00+31всв22374 0.0 10131652
20:00+27в226336 0.0 101321
20 июня, вс
вс2023:00+23ссв2268100 0.0 101423
02:00+21всв227773 0.0 101311
05:00+18вюв228991 0.0 101321
08:00+23вюв346923 0.0 1012296
11:00+28вюв56523 0.0 1010937
14:00+31вюв56415 0.0 10091933
17:00+31юв57418 0.0 10072058
20:00+26вюв496522 0.0 1006294
21 июня, пн
пн2123:00+22в4107746 0.0 1007250
02:00+19вюв3489100 0.4 100864
05:00+18ю1295100 0.0 100735
08:00+20зюз248293 0.0 1009422
11:00+25вюв226220 0.2 1008941
14:00+27вюв446051 0.4 10071286
17:00+27в346118 0.8 10061207
20:00+23всв48825 1.9 1006229